FW5262 Weather Reports


Display with metric or nautical units.
time (UTC)temp
F
wind
direction
speed
MPH
gust
MPH
rain 1hr
in
rain 24hr
in
rain mn
in
humidity
%
barometer
mb
20260506112556 52 9 7.0 12.0 0.00 0.00 0.00 86 942.3
20260506112050 52 22 6.0 12.0 0.00 0.00 0.00 86 942.3
20260506111815 52 355 8.0 16.0 0.00 0.00 0.00 86 942.3
20260506111310 51 351 8.0 16.0 0.00 0.00 0.00 86 942.2
20260506110536 52 21 8.0 13.0 0.00 0.00 0.00 86 941.9
20260506110034 52 351 7.0 13.0 0.00 0.00 0.00 86 942.1
20260506105533 52 342 8.0 15.0 0.00 0.00 0.00 86 942.1
20260506105033 52 347 9.0 15.0 0.00 0.00 0.00 86 942.0
20260506104534 52 12 10.0 16.0 0.00 0.00 0.00 86 942.0
20260506104309 52 355 9.0 16.0 0.00 0.00 0.00 86 941.9
20260506103533 52 355 7.0 15.0 0.00 0.00 0.00 86 941.9
20260506103034 52 324 7.0 14.0 0.00 0.00 0.00 87 942.0
20260506102806 52 343 7.0 16.0 0.00 0.00 0.00 87 942.0
20260506102046 52 319 8.0 14.0 0.00 0.00 0.00 87 941.8
20260506102034 52 9 9.0 16.0 0.00 0.00 0.00 87 941.7
20260506101033 51 351 7.0 13.0 0.00 0.00 0.00 88 941.8
20260506100533 51 334 5.0 11.0 0.00 0.00 0.00 87 941.9
20260506100033 51 14 6.0 10.0 0.00 0.00 0.00 87 941.8
20260506095534 51 336 6.0 10.0 0.00 0.00 0.00 87 941.6
20260506095033 51 9 6.0 10.0 0.00 0.00 0.00 87 941.5
20260506094804 52 318 6.0 10.0 0.00 0.00 0.00 87 941.4
20260506094028 52 325 6.0 11.0 0.00 0.00 0.00 87 941.3
20260506093522 52 342 6.0 11.0 0.00 0.00 0.00 86 941.1
20260506093017 52 10 7.0 11.0 0.00 0.00 0.00 87 940.9
20260506092509 52 348 7.0 12.0 0.00 0.00 0.00 86 940.9
20260506092003 52 351 6.0 12.0 0.00 0.00 0.00 86 940.9
20260506091457 52 338 6.0 10.0 0.00 0.00 0.00 86 941.1
20260506091222 52 350 6.0 10.0 0.00 0.00 0.00 86 941.2
20260506090446 52 11 6.0 11.0 0.00 0.00 0.00 85 941.1
20260506085939 53 18 7.0 12.0 0.00 0.00 0.00 85 941.0
20260506085434 53 36 6.0 12.0 0.00 0.00 0.00 85 941.0
20260506084927 53 5 5.0 10.0 0.00 0.00 0.00 85 941.0
20260506084422 53 344 5.0 10.0 0.00 0.00 0.00 85 941.0
20260506083915 53 350 6.0 12.0 0.00 0.00 0.00 85 941.2
20260506083410 53 334 6.0 12.0 0.00 0.00 0.00 85 941.1
20260506082903 53 338 7.0 11.0 0.00 0.00 0.00 85 941.0
20260506082357 53 0 8.0 15.0 0.00 0.00 0.00 85 940.9
20260506081852 53 22 8.0 15.0 0.00 0.00 0.00 85 941.0
20260506081618 54 329 7.0 13.0 0.00 0.00 0.00 84 941.0
20260506080839 54 13 6.0 11.0 0.00 0.00 0.00 84 940.9
20260506080334 54 0 6.0 11.0 0.00 0.00 0.00 84 940.8
20260506073257 55 15 5.0 10.0 0.00 0.00 0.00 82 941.2
20260506073023 55 348 5.0 10.0 0.00 0.00 0.00 82 941.1
20260506072246 55 0 6.0 13.0 0.00 0.00 0.00 82 941.1
20260506071742 55 344 6.0 13.0 0.00 0.00 0.00 82 941.1
20260506071243 55 26 6.0 11.0 0.00 0.00 0.00 82 941.2
20260506070742 56 17 5.0 10.0 0.00 0.00 0.00 81 941.0
20260506070518 56 39 5.0 10.0 0.00 0.00 0.00 81 940.9
20260506062242 57 11 7.0 12.0 0.00 0.00 0.00 78 940.8
20260506061743 58 346 7.0 13.0 0.00 0.00 0.00 78 940.7
20260506061243 58 0 6.0 13.0 0.00 0.00 0.00 77 940.6
20260506060752 58 30 6.0 12.0 0.00 0.00 0.00 76 940.7
20260506060743 58 9 6.0 12.0 0.00 0.00 0.00 77 940.9
20260506051227 61 35 4.0 11.0 0.00 0.00 0.00 71 939.8
20260506050725 62 23 6.0 11.0 0.00 0.00 0.00 70 939.7
20260506050226 62 19 6.0 11.0 0.00 0.00 0.00 69 939.7
20260506044726 63 57 5.0 12.0 0.00 0.00 0.00 68 939.8
20260506044227 64 21 5.0 9.0 0.00 0.00 0.00 69 939.8
20260506043726 64 50 5.0 9.0 0.00 0.00 0.00 68 939.8
20260506042727 65 11 6.0 12.0 0.00 0.00 0.00 67 939.4
20260506042456 65 41 6.0 14.0 0.00 0.00 0.00 66 939.4
20260506041725 65 49 6.0 14.0 0.00 0.00 0.00 65 939.8
20260506041457 66 344 5.0 9.0 0.00 0.00 0.00 66 939.7
20260506040727 66 21 5.0 9.0 0.00 0.00 0.00 65 939.6
20260506040502 66 334 5.0 9.0 0.00 0.00 0.00 64 939.5
20260506035726 67 5 4.0 8.0 0.00 0.00 0.00 63 939.5
20260506035227 67 12 4.0 9.0 0.00 0.00 0.00 63 939.6
20260506034725 67 44 5.0 10.0 0.00 0.00 0.00 63 939.4
20260506034226 67 19 5.0 10.0 0.00 0.00 0.00 62 939.4
20260506033956 68 13 4.0 9.0 0.00 0.00 0.00 63 939.4
20260506033227 68 5 4.0 9.0 0.00 0.00 0.00 62 939.5
20260506032957 68 0 4.0 9.0 0.00 0.00 0.00 62 939.4
20260506032226 68 19 4.0 9.0 0.00 0.00 0.00 62 939.3
20260506031724 68 351 4.0 9.0 0.00 0.00 0.00 62 939.4
20260506031224 69 31 5.0 9.0 0.00 0.00 0.00 62 939.4
20260506030724 69 325 5.0 9.0 0.00 0.00 0.00 62 939.3
20260506030221 69 336 5.0 9.0 0.00 0.00 0.00 62 939.1
20260506025721 69 355 5.0 9.0 0.00 0.00 0.00 62 938.9
20260506025216 69 51 4.0 9.0 0.00 0.00 0.00 63 938.9
20260506024710 69 9 4.0 8.0 0.00 0.00 0.00 64 938.9
20260506024442 69 343 3.0 8.0 0.00 0.00 0.00 64 938.8
20260506023708 69 0 3.0 5.0 0.00 0.00 0.00 64 938.7
20260506023206 69 342 3.0 5.0 0.00 0.00 0.00 64 938.7
20260506022937 70 350 2.0 5.0 0.00 0.00 0.00 64 938.6
20260506022434 70 336 2.0 3.0 0.00 0.00 0.00 65 938.5
20260506021158 71 12 2.0 5.0 0.00 0.00 0.00 62 938.4
20260506020157 71 0 2.0 4.0 0.00 0.00 0.00 61 938.2
20260506015659 72 49 3.0 4.0 0.00 0.00 0.00 62 938.0
20260506015159 72 22 3.0 5.0 0.00 0.00 0.00 60 938.1
20260506014655 73 9 3.0 7.0 0.00 0.00 0.00 61 938.0
20260506014424 73 24 3.0 7.0 0.00 0.00 0.00 59 938.0
20260506013654 74 350 3.0 7.0 0.00 0.00 0.00 58 937.8
20260506013154 74 355 3.0 5.0 0.00 0.00 0.00 58 937.7
20260506012652 75 5 3.0 7.0 0.00 0.00 0.00 57 937.6
20260506012149 75 14 4.0 7.0 0.00 0.00 0.00 56 937.6
20260506011702 76 344 4.0 8.0 0.00 0.00 0.00 55 937.3
20260506011650 76 355 4.0 8.0 0.00 0.00 0.00 56 937.4
20260506010646 77 36 4.0 8.0 0.00 0.00 0.00 55 937.3
20260506010140 77 25 4.0 9.0 0.00 0.00 0.00 55 937.1
20260506005634 78 33 4.0 10.0 0.00 0.00 0.00 56 937.1
20260506005359 78 57 5.0 10.0 0.00 0.00 0.00 56 936.9
20260506004853 78 46 4.0 10.0 0.00 0.00 0.00 53 936.7
20260506004347 79 22 3.0 8.0 0.00 0.00 0.00 51 936.9
20260506003842 79 34 3.0 8.0 0.00 0.00 0.00 47 936.9
20260506003104 79 17 3.0 5.0 0.00 0.00 0.00 45 936.7
20260506002829 79 335 3.0 5.0 0.00 0.00 0.00 45 936.6
20260506002052 80 336 4.0 6.0 0.00 0.00 0.00 45 936.4
20260506001546 80 320 4.0 6.0 0.00 0.00 0.00 44 936.5
20260506001041 80 21 4.0 7.0 0.00 0.00 0.00 43 936.3
20260506000806 80 309 4.0 7.0 0.00 0.00 0.00 43 936.3
20260506000028 81 5 4.0 6.0 0.00 0.00 0.00 44 935.9
20260505235522 81 333 4.0 6.0 0.00 0.00 0.00 43 936.2
20260505235016 82 332 4.0 7.0 0.00 0.00 0.00 42 936.2
20260505234510 82 355 4.0 8.0 0.00 0.00 0.00 41 935.9
20260505234004 83 329 6.0 11.0 0.00 0.00 0.00 39 935.8
20260505233459 83 336 7.0 11.0 0.00 0.00 0.00 38 935.9
20260505232952 84 17 7.0 14.0 0.00 0.00 0.00 39 935.9
20260505232447 85 5 7.0 13.0 0.00 0.00 0.00 38 935.9
20260505231940 85 339 5.0 12.0 0.00 0.00 0.00 38 936.0
20260505231435 86 315 4.0 11.0 0.00 0.00 0.00 36 935.7
20260505230928 86 336 5.0 11.0 0.00 0.00 0.00 35 935.7
20260505230422 87 0 4.0 9.0 0.00 0.00 0.00 35 935.6
20260505225916 87 326 4.0 8.0 0.00 0.00 0.00 36 935.8
20260505225410 87 344 4.0 9.0 0.00 0.00 0.00 34 935.8
20260505224904 88 331 5.0 9.0 0.00 0.00 0.00 33 935.9
20260505224358 88 281 5.0 12.0 0.00 0.00 0.00 33 935.8
20260505223852 88 223 4.0 12.0 0.00 0.00 0.00 35 935.7
20260505223346 89 203 4.0 9.0 0.00 0.00 0.00 33 935.6
20260505222840 89 229 4.0 9.0 0.00 0.00 0.00 30 935.6
20260505222335 89 257 5.0 10.0 0.00 0.00 0.00 31 935.5
20260505221828 89 285 4.0 10.0 0.00 0.00 0.00 32 935.4
20260505221323 89 240 4.0 9.0 0.00 0.00 0.00 34 935.4
20260505220816 89 217 5.0 11.0 0.00 0.00 0.00 34 935.3
20260505220541 89 234 5.0 10.0 0.00 0.00 0.00 35 935.2
20260505215804 89 207 6.0 11.0 0.00 0.00 0.00 34 935.3
20260505215258 89 200 6.0 13.0 0.00 0.00 0.00 35 935.5
20260505214752 89 176 7.0 13.0 0.00 0.00 0.00 33 935.5
20260505214246 89 223 7.0 12.0 0.00 0.00 0.00 34 935.5
20260505213740 90 197 7.0 12.0 0.00 0.00 0.00 34 935.6
20260505213234 90 240 6.0 11.0 0.00 0.00 0.00 33 935.6
20260505212729 90 217 5.0 11.0 0.00 0.00 0.00 33 935.7
20260505212226 90 238 5.0 13.0 0.00 0.00 0.00 32 935.7
20260505211722 91 209 5.0 15.0 0.00 0.00 0.00 30 935.8
20260505211221 91 227 6.0 15.0 0.00 0.00 0.00 29 935.8
20260505210952 91 231 5.0 11.0 0.00 0.00 0.00 31 936.0
20260505210222 91 213 5.0 9.0 0.00 0.00 0.00 35 936.0
20260505205720 90 200 7.0 13.0 0.00 0.00 0.00 33 936.0
20260505205216 90 221 8.0 14.0 0.00 0.00 0.00 36 936.1
20260505204717 90 239 8.0 15.0 0.00 0.00 0.00 33 936.2
20260505204216 91 236 7.0 15.0 0.00 0.00 0.00 32 936.1
20260505203716 91 194 6.0 15.0 0.00 0.00 0.00 33 936.1
20260505203217 90 192 6.0 15.0 0.00 0.00 0.00 34 936.2
20260505202720 91 249 6.0 14.0 0.00 0.00 0.00 32 936.1
20260505202216 91 231 7.0 14.0 0.00 0.00 0.00 34 936.2
20260505201717 90 167 6.0 12.0 0.00 0.00 0.00 35 936.3
20260505201216 90 196 5.0 16.0 0.00 0.00 0.00 38 936.4
20260505200717 90 246 5.0 16.0 0.00 0.00 0.00 37 936.5
20260505200456 90 242 6.0 13.0 0.00 0.00 0.00 38 936.6
20260505195715 90 198 6.0 17.0 0.00 0.00 0.00 36 936.6
20260505195214 89 212 7.0 17.0 0.00 0.00 0.00 40 936.6
20260505194715 89 212 6.0 13.0 0.00 0.00 0.00 37 936.7
20260505194214 89 249 5.0 12.0 0.00 0.00 0.00 39 936.6
20260505193716 89 233 5.0 12.0 0.00 0.00 0.00 37 936.7
20260505193214 89 228 6.0 13.0 0.00 0.00 0.00 41 936.8
20260505192716 88 255 8.0 15.0 0.00 0.00 0.00 39 936.8
20260505192450 89 179 7.0 15.0 0.00 0.00 0.00 41 936.9
20260505191946 88 227 5.0 13.0 0.00 0.00 0.00 41 936.8
20260505191210 89 191 5.0 12.0 0.00 0.00 0.00 41 937.1
20260505190711 88 243 7.0 17.0 0.00 0.00 0.00 44 937.1
20260505190210 87 193 6.0 17.0 0.00 0.00 0.00 43 937.1
20260505185710 87 202 5.0 10.0 0.00 0.00 0.00 45 937.1
20260505185210 86 200 5.0 10.0 0.00 0.00 0.00 45 937.1
20260505184710 86 207 5.0 10.0 0.00 0.00 0.00 48 937.2
20260505184211 87 202 5.0 10.0 0.00 0.00 0.00 45 937.2
20260505183710 86 213 6.0 14.0 0.00 0.00 0.00 49 937.3
20260505183212 86 244 7.0 14.0 0.00 0.00 0.00 45 937.4
20260505182937 86 241 6.0 14.0 0.00 0.00 0.00 46 937.5
20260505182429 86 233 7.0 15.0 0.00 0.00 0.00 51 937.6
20260505181652 86 226 8.0 15.0 0.00 0.00 0.00 50 937.7
20260505181147 85 256 6.0 13.0 0.00 0.00 0.00 54 937.7
20260505180641 84 249 6.0 10.0 0.00 0.00 0.00 51 937.8
20260505180135 84 209 6.0 12.0 0.00 0.00 0.00 52 937.8
20260505175629 84 199 6.0 12.0 0.00 0.00 0.00 50 937.9
20260505175123 84 227 6.0 15.0 0.00 0.00 0.00 55 937.9
20260505174617 83 246 6.0 15.0 0.00 0.00 0.00 53 937.9
20260505174110 83 252 6.0 13.0 0.00 0.00 0.00 54 937.9
20260505173604 83 219 5.0 12.0 0.00 0.00 0.00 55 937.9
20260505173058 82 257 5.0 10.0 0.00 0.00 0.00 60 937.8
20260505172553 82 246 7.0 18.0 0.00 0.00 0.00 56 937.8
20260505172047 82 204 6.0 18.0 0.00 0.00 0.00 56 937.8
20260505171540 82 234 5.0 12.0 0.00 0.00 0.00 58 937.8
20260505171034 82 209 6.0 12.0 0.00 0.00 0.00 56 937.8
20260505170529 82 255 6.0 12.0 0.00 0.00 0.00 59 937.9
20260505170022 81 235 6.0 12.0 0.00 0.00 0.00 59 937.8
20260505165516 81 210 7.0 13.0 0.00 0.00 0.00 60 937.9
20260505165241 81 234 6.0 13.0 0.00 0.00 0.00 59 937.9
20260505164505 81 196 6.0 15.0 0.00 0.00 0.00 61 938.0
20260505163959 80 208 7.0 15.0 0.00 0.00 0.00 62 938.0
20260505163452 80 232 6.0 12.0 0.00 0.00 0.00 64 938.0
20260505162947 80 263 5.0 12.0 0.00 0.00 0.00 65 938.1
20260505162441 79 218 4.0 10.0 0.00 0.00 0.00 69 938.1
20260505161934 78 267 4.0 10.0 0.00 0.00 0.00 72 938.1
20260505161429 77 261 5.0 11.0 0.00 0.00 0.00 71 938.0
20260505161424 77 241 6.0 16.0 0.00 0.00 0.00 72 938.1
20260505160416 77 253 6.0 16.0 0.00 0.00 0.00 73 938.1
20260505152835 76 191 7.0 17.0 0.00 0.00 0.00 74 937.5
20260505152329 75 205 7.0 17.0 0.00 0.00 0.00 74 937.7
20260505151823 75 234 8.0 13.0 0.00 0.00 0.00 76 937.6
20260505151317 75 228 9.0 17.0 0.00 0.00 0.00 75 937.5
20260505150811 74 213 10.0 19.0 0.00 0.00 0.00 76 937.3
20260505150305 74 198 9.0 18.0 0.00 0.00 0.00 77 937.3
20260505140153 71 219 8.0 19.0 0.00 0.00 0.00 83 937.2
20260505125029 67 200 8.0 15.0 0.00 0.00 0.00 88 936.6
20260505124754 66 165 8.0 13.0 0.00 0.00 0.00 88 936.6
20260505124016 66 197 7.0 12.0 0.00 0.00 0.00 89 936.5
20260505123510 66 186 7.0 12.0 0.00 0.00 0.00 89 936.5
20260505123011 65 200 7.0 11.0 0.00 0.00 0.00 89 936.6
20260505122742 65 221 6.0 11.0 0.00 0.00 0.00 89 936.5
20260505122010 65 217 6.0 11.0 0.00 0.00 0.00 89 936.5
20260505121512 65 197 6.0 11.0 0.00 0.00 0.00 90 936.4
20260505121011 65 229 6.0 11.0 0.00 0.00 0.00 90 936.3
20260505120510 65 190 6.0 12.0 0.00 0.00 0.00 89 936.3
20260505120011 65 171 6.0 12.0 0.00 0.00 0.00 89 936.3
20260505115511 65 195 7.0 13.0 0.00 0.00 0.00 89 936.2
20260505115013 65 197 7.0 13.0 0.00 0.00 0.00 89 936.2
20260505114513 65 217 7.0 13.0 0.00 0.00 0.00 89 936.3
20260505114014 65 196 7.0 13.0 0.00 0.00 0.00 88 936.0
20260505113508 65 200 8.0 14.0 0.00 0.00 0.00 88 936.0
20260505113241 65 175 8.0 14.0 0.00 0.00 0.00 88 936.0